sat.trackr.live / text

‹ back to catalog

ONEWEB-0526

NORAD 54144 · 2022-138AH

PAYLOAD ACTIVE UNKNOWN

§ Identity

Operator
Country
UK
Launch date
2022-10-22
Launch site
SRILR
Launch vehicle
Mass (kg)
RCS (m²)

Purposes: comms

External: N2YO · Heavens-Above · Gunter

§ Orbital elements

Epoch: 2026-09-19T21:21:16.492608Z

Period
109.11 min
Inclination
87.9109°
Eccentricity
0.0001816
Mean motion
13.19723786 rev/d
Perigee alt
1,184.4 km
Apogee alt
1,187.1 km
Semi-major
7,563.9 km
B*
9.5569e-5
RAAN
286.1010°
Arg perigee
88.5097°
Mean anomaly
271.6244°
Rev number
18,929

§ Raw data

ONEWEB-05261 54144U 22138AH  26262.88977422  .00000051  00000+0  95569-4 0  99922 54144  87.9109 286.1010 0001816  88.5097 271.6244 13.19723786189297

JSON: /api/v1/satellites/54144 · /tle

For live sub-satellite position, see the globe view (requires WebGL).

§ Visibility from observer

Set your observer location to see the next 7 days of passes ≥ 10°. The values pass through the URL so the page stays shareable.

No JS? Fill the form by hand. The geolocation button needs JavaScript.